Hourly Weather Roundup
Issued by NWS Central Illinois

Current Version | Previous Version | Text Only | Print | Product List | Glossary On
Versions: 1 2 3 4 5 6 7 8 9 10 11 12 13 14 15 16 17 18 19 20 21 22 23 24 25 26 27 28 29 30 31 32 33 34 35 36 37 38 39 40 41 42 43 44 45 46 47 48 49 50
000
NZUS43 KILX 281510
HWRILX

AREA WEATHER ROUNDUP
NATIONAL WEATHER SERVICE, LINCOLN IL
900 AM CST SAT FEB 28 2015


CITY           SKY/WX    TMP DP  RH WIND       PRES   REMARKS
BLOOMINGTON    MOSUNNY   13   4  67 SE6       30.68R WCI   4
CHAMPAIGN      CLOUDY    14   5  67 E10       30.69R WCI   1
DECATUR        CLOUDY    13   5  70 E8        30.68R WCI   2
FLORA          PTSUNNY   19   7  61 E7        30.68F WCI   9
GALESBURG      CLOUDY     8   1  75 E6        30.65S WCI  -2
JACKSONVILLE   PTSUNNY   10   3  74 E5        30.66S WCI   2
LACON          CLOUDY     1  -4  79 CALM      30.70S
LAWRENCEVILLE  CLOUDY    20   8  60 E6        30.71S WCI  12
LITCHFIELD     CLOUDY    17   3  55 E6        30.65F WCI   8
$$


CITY           SKY/WX    TMP DP  RH WIND       PRES   REMARKS
LINCOLN        SUNNY     16   5  63 SE9       30.72R WCI   4
MACOMB         CLOUDY    10   3  71 SE10      30.68S WCI  -3
MATTOON        CLOUDY    17   4  56 SE9       30.67R WCI   6
MT CARMEL AP   CLOUDY    23   9  54 E7        30.70S WCI  15
OLNEY-NOBLE AP CLOUDY    19   9  63 SE7       30.69F WCI  10
PARIS          CLOUDY    15   6  67 SE6       30.71R WCI   7
PEORIA         CLOUDY    14   2  58 SE7       30.69R WCI   4
PONTIAC        CLOUDY     8   1  72 E10       30.71S WCI  -6
RANTOUL        PTSUNNY   16   7  67 E7        30.69S WCI   6
ROBINSON       CLOUDY    19   7  60 E7        30.72S WCI  10
SPRINGFIELD    CLOUDY    14   4  64 E6        30.68R WCI   5
TAYLORVILLE    CLOUDY    16   5  62 SE7       30.67F WCI   6
$$

...REGIONAL REPORTS...


CITY           SKY/WX    TMP DP  RH WIND       PRES   REMARKS
CHICAGO O`HARE MOSUNNY    4  -2  76 S5        30.71S WCI  -5
KANKAKEE       MOSUNNY    8   0  70 E7        30.73S WCI  -4
MOLINE         SUNNY     -2 -10  69 E3        30.68R
MOUNT VERNON   CLOUDY    19   9  63 NE7       30.67F WCI  10
PITTSFIELD     SUNNY     15   5  67 E9        30.65S WCI   3
QUINCY         SUNNY     10   1  67 SE9       30.62S WCI  -3
ROCKFORD       SUNNY     -2  -9  72 CALM      30.71S
$$


CITY           SKY/WX    TMP DP  RH WIND       PRES   REMARKS
BURLINGTON     CLOUDY     9   1  70 SE6       30.65R WCI  -1
CEDAR RAPIDS   SUNNY     -1  -5  82 SE5       30.62R WCI -11
DES MOINES     MOSUNNY    9  -2  61 SE6       30.56S WCI  -1
KIRKSVILLE     SUNNY     15   6  67 SE10      30.58S WCI   2
OTTUMWA        SUNNY      6  -2  69 E7        30.60S WCI  -6
ST LOUIS       PTSUNNY   20   7  57 E8        30.64F WCI  10
$$


CITY           SKY/WX    TMP DP  RH WIND       PRES   REMARKS
TERRE HAUTE    CLOUDY    16   5  62 SE7       30.70F WCI   6
EVANSVILLE     CLOUDY    24   9  52 E9        30.68F WCI  14
INDIANAPOLIS   CLOUDY    16   3  56 SE10      30.69F WCI   4
LAFAYETTE      MOSUNNY   12   4  70 E6        30.72S WCI   3
MADISON        SUNNY      3  -5  69 S7        30.66R WCI  -9
MILWAUKEE      MOSUNNY    5  -5  63 S5        30.70R WCI  -4
$$





USA.gov is the U.S. government's official web portal to all federal, state and local government web resources and services.